Lapse_Rate
7.2 7.2 7.2 7.0 7.0 7.1 7.1 7.2 7.1 7.1 7.2 7.2 7.3 7.3 7.4 7.5 7.5 7.4 7.4 7.4 7.5 7.6 7.5 7.1 7.0 7.0 7.1 7.3 7.2 7.4 7.3 7.2 7.6 7.9 8.0 8.0 7.7 7.5 7.5 7.3 7.3 7.1 7.1 7.5 7.6
7.2 7.2 7.1 7.1 7.1 7.1 7.1 7.2 7.1 7.1 7.1 7.2 7.2 7.3 7.4 7.5 7.5 7.6 7.6 7.6 7.6 7.7 7.7 7.4 7.1 7.0 7.0 7.2 7.2 7.1 7.5 7.8 8.1 8.0 8.2 8.1 7.9 7.8 7.7 7.8 7.6 7.4 7.4 7.6 7.9
7.2 7.2 7.2 7.2 7.2 7.0 7.1 7.2 7.2 7.1 7.1 7.2 7.1 7.1 7.2 7.4 7.5 7.6 7.7 7.7 7.7 7.8 7.7 7.6 7.3 7.2 7.0 7.2 7.4 7.7 7.8 8.1 8.0 8.0 8.1 8.3 8.2 8.2 8.0 8.1 7.8 7.5 7.7 7.8 8.2
7.1 7.2 7.2 7.2 7.2 7.2 7.2 7.3 7.3 7.2 7.2 7.2 7.2 7.1 7.1 7.2 7.4 7.5 7.6 7.7 7.8 7.9 7.7 7.6 7.4 7.2 7.3 7.4 7.6 7.7 7.8 8.0 7.9 8.0 8.2 8.2 8.2 8.4 8.4 8.3 8.0 7.8 7.9 8.1 8.3
7.0 7.2 7.2 7.3 7.3 7.4 7.4 7.4 7.4 7.4 7.3 7.3 7.3 7.2 7.2 7.2 7.2 7.3 7.5 7.6 7.7 7.9 7.8 7.5 7.4 7.3 7.4 7.5 7.7 7.9 8.0 8.0 7.8 8.0 8.1 8.3 8.1 8.3 8.5 8.5 8.3 8.1 8.1 8.3 8.3
7.0 7.1 7.2 7.3 7.4 7.4 7.4 7.5 7.5 7.4 7.4 7.4 7.4 7.3 7.3 7.3 7.3 7.3 7.3 7.4 7.5 7.7 7.7 7.6 7.4 7.5 7.5 7.6 7.8 8.0 8.1 8.1 8.1 7.9 7.9 8.2 8.0 8.3 8.4 8.4 8.4 8.2 8.1 8.2 8.3
6.8 7.0 7.1 7.2 7.3 7.4 7.5 7.5 7.6 7.5 7.5 7.5 7.5 7.5 7.4 7.4 7.3 7.3 7.3 7.3 7.3 7.5 7.7 7.8 7.6 7.5 7.6 7.7 7.9 8.1 8.1 8.0 8.0 7.9 7.7 8.2 8.1 8.0 8.1 8.3 8.6 8.2 8.1 8.2 8.2
6.8 6.8 7.0 7.0 7.2 7.2 7.4 7.5 7.5 7.5 7.6 7.6 7.6 7.6 7.5 7.5 7.4 7.3 7.3 7.3 7.3 7.4 7.6 7.7 7.6 7.4 7.5 7.7 7.8 7.9 8.0 7.8 7.8 7.8 8.0 7.9 8.0 8.2 8.1 8.2 8.9 8.4 8.0 8.2 8.1
6.8 6.9 6.8 6.9 7.0 7.1 7.3 7.4 7.5 7.6 7.7 7.7 7.7 7.7 7.6 7.6 7.5 7.5 7.4 7.3 7.4 7.4 7.5 7.6 7.5 7.2 7.3 7.5 7.5 7.6 7.7 7.7 7.8 7.9 7.9 7.9 8.3 8.4 8.3 8.1 8.5 8.6 8.1 8.0 8.0
6.9 6.9 7.0 7.0 7.0 7.0 7.3 7.4 7.6 7.6 7.8 7.8 7.8 7.8 7.8 7.8 7.7 7.6 7.6 7.4 7.5 7.6 7.5 7.5 7.4 7.3 7.3 7.3 7.4 7.4 7.5 7.7 7.9 7.6 8.0 8.1 8.2 8.3 8.5 8.3 8.3 8.4 8.3 7.7 7.7
7.1 7.0 7.0 7.1 7.1 7.1 7.3 7.4 7.6 7.7 7.8 7.8 7.9 7.9 8.0 7.9 7.7 7.7 7.6 7.5 7.4 7.6 7.6 7.5 7.5 7.7 7.0 7.1 7.1 7.2 7.3 7.7 7.9 7.6 7.9 8.1 8.3 8.5 8.6 8.6 8.3 8.0 8.2 7.5 7.2
7.2 7.2 7.0 7.0 7.1 7.2 7.3 7.4 7.5 7.5 7.8 7.9 7.9 8.0 7.9 8.0 7.9 7.7 7.7 7.6 7.4 7.5 7.6 7.4 7.7 7.3 7.1 7.2 7.2 7.2 7.4 7.8 8.0 7.7 7.8 8.1 8.4 8.7 8.5 8.6 8.4 8.2 8.0 7.1 6.8
7.4 7.4 7.1 7.0 6.9 7.1 7.3 7.5 7.4 7.6 7.8 8.0 8.1 8.2 7.8 7.9 7.7 7.7 7.7 7.6 7.4 7.3 7.4 7.3 7.4 7.5 7.3 7.0 7.0 7.1 7.4 7.4 7.4 7.7 8.0 8.0 8.3 8.5 8.4 8.3 8.3 8.0 7.7 7.3 6.7
7.4 7.3 7.1 6.9 6.9 7.0 7.3 7.4 7.2 7.5 7.8 8.0 8.1 8.2 7.9 7.8 7.5 7.4 7.4 7.3 7.3 7.5 7.1 7.0 7.2 7.1 7.0 7.0 7.1 7.3 7.2 7.4 7.6 7.9 8.0 7.9 8.4 8.5 8.3 8.4 8.3 7.9 8.0 7.8 7.6
7.3 7.3 7.2 7.0 7.0 7.0 7.1 7.1 7.0 7.3 7.5 7.8 7.7 7.9 8.0 7.8 7.9 7.8 7.4 7.2 7.4 7.5 7.2 7.4 7.3 7.4 7.3 7.4 7.3 7.3 7.6 7.7 7.9 7.9 7.9 7.9 8.1 8.5 8.3 8.3 8.4 8.1 8.5 8.4 7.9
7.2 7.2 7.3 7.2 7.2 7.1 7.1 6.8 7.0 7.0 7.0 7.4 7.4 7.5 7.7 7.6 7.9 7.7 7.3 7.0 7.2 6.9 7.0 7.2 7.4 7.3 7.4 7.4 7.3 7.6 7.6 7.7 8.0 7.9 8.1 8.1 7.9 8.4 8.3 8.5 8.4 8.4 8.3 8.5 8.4
7.0 7.2 7.1 7.2 7.3 7.3 7.1 6.7 6.7 6.4 7.4 7.2 7.3 7.5 7.6 7.6 7.5 7.6 7.6 7.4 7.4 7.0 6.9 7.6 7.7 7.7 7.5 7.4 7.4 7.6 7.7 8.1 8.1 8.1 8.5 7.9 7.5 8.4 8.3 8.3 8.4 8.3 8.3 8.4 8.4
6.7 7.0 7.0 7.1 7.2 7.1 7.0 6.8 6.4 7.0 7.4 7.2 7.3 7.4 7.6 7.6 7.3 7.6 7.8 7.6 7.4 7.3 7.5 7.4 8.0 7.9 7.9 7.9 7.9 7.9 7.8 8.3 8.1 8.3 8.5 7.9 8.0 8.5 8.4 8.3 8.2 8.1 8.3 8.4 8.3
6.5 6.8 7.0 7.0 7.1 6.9 6.9 6.5 7.0 7.2 7.3 7.5 7.4 7.5 7.5 7.6 7.7 7.4 7.5 7.7 7.8 7.8 7.6 7.7 7.7 7.7 7.7 7.6 7.7 7.7 7.8 8.2 8.2 7.8 7.9 8.2 8.5 8.5 8.5 8.5 8.3 8.3 8.6 8.3 8.1
6.3 6.6 6.8 6.9 6.9 6.8 6.7 6.9 7.0 7.0 7.2 7.4 7.4 7.5 7.5 7.5 7.6 7.6 7.7 7.7 7.7 7.8 7.8 7.7 7.6 7.7 7.6 7.5 7.5 7.7 8.0 8.3 8.2 8.2 8.5 8.2 8.2 8.7 8.7 8.7 8.5 8.7 8.8 8.3 8.1
6.3 6.6 6.6 6.6 6.6 6.6 6.7 6.7 6.7 6.7 7.0 7.3 7.2 7.1 7.2 7.3 7.4 7.6 7.8 7.7 7.8 8.0 7.8 7.7 7.7 7.8 7.6 7.7 7.8 8.0 8.2 8.4 8.5 8.5 9.2 9.0 8.9 8.9 8.9 8.7 8.6 8.6 8.5 8.3 8.2
6.2 6.3 6.4 6.4 6.4 6.4 6.4 6.3 6.3 6.5 6.8 6.9 6.9 6.9 6.9 7.1 7.3 7.4 7.8 7.9 7.9 8.0 8.1 8.0 7.8 7.7 8.3 8.1 8.0 7.9 8.1 8.3 8.7 8.2 8.4 8.3 8.8 9.2 9.0 8.9 8.9 8.8 8.6 8.4 8.2
5.9 6.0 6.1 6.1 6.1 6.2 6.0 6.0 6.1 6.3 6.5 6.5 6.6 6.7 6.8 6.9 7.2 7.5 7.7 7.7 8.0 8.1 8.1 8.2 8.0 8.1 8.5 8.4 8.3 8.2 8.3 8.6 8.6 8.9 8.7 8.8 9.0 9.3 9.1 9.1 9.2 9.1 8.9 8.6 8.3
5.8 5.6 5.5 5.6 5.8 5.9 5.5 5.7 5.8 5.9 6.0 6.1 6.2 6.5 6.8 6.8 7.0 7.3 7.7 7.8 7.9 8.0 8.2 8.2 8.3 8.7 9.1 9.2 9.1 8.6 8.6 8.9 8.9 8.9 8.9 8.8 8.9 9.2 9.1 9.1 9.3 9.3 9.0 8.7 8.4
5.6 5.5 5.4 5.1 5.2 5.4 5.4 5.6 5.7 5.5 5.9 6.1 6.2 6.5 6.7 6.6 6.8 7.1 7.3 7.6 7.8 7.9 8.1 8.2 8.4 8.5 8.5 8.6 8.8 9.0 8.9 8.8 8.9 9.0 9.1 9.2 9.0 8.9 8.9 9.2 9.3 9.1 8.6 8.6 8.4
5.5 5.5 5.3 5.3 5.2 5.1 5.0 5.2 5.4 5.5 5.8 5.8 5.9 6.2 6.5 6.5 6.6 6.9 7.3 7.5 7.8 8.0 7.9 8.0 8.3 8.5 8.5 8.5 8.8 9.1 9.0 9.0 8.9 9.0 9.0 9.2 9.3 9.3 9.0 9.1 9.3 9.2 8.9 8.6 8.4
5.7 5.5 5.4 5.2 5.2 5.2 5.1 5.2 5.4 5.4 5.4 5.4 5.7 5.8 6.0 6.2 6.4 6.6 6.9 7.4 7.7 8.0 8.1 8.1 8.3 8.5 8.6 8.5 8.3 8.4 8.8 8.9 9.0 9.1 9.1 9.1 9.2 9.3 9.4 9.2 9.2 9.2 8.9 8.5 8.2
Wind_Speed
16 16 15 15 14 14 14 15 15 16 17 15 13 13 12 12 11 2 5 3 4 4 4 5 3 1 1 2 2 2 3 3 3 1 6 2 1 3 4 7 4 5 4 6 16
16 17 17 17 16 15 16 16 15 15 15 15 13 13 11 11 2 6 5 4 3 10 4 4 4 2 2 2 2 2 2 5 1 2 6 6 2 7 6 5 4 5 5 14 17
17 17 17 17 17 17 16 17 16 15 14 14 12 12 9 8 2 3 2 7 10 5 4 3 4 2 2 0 1 2 2 2 3 11 8 8 5 5 7 7 8 10 14 16 16
17 17 17 17 18 18 18 18 18 16 13 12 10 9 6 3 1 3 7 8 11 3 4 3 3 2 2 2 1 2 1 3 4 4 5 4 1 4 11 9 3 10 19 19 18
18 18 18 18 19 19 20 20 19 17 14 11 8 7 3 3 3 5 12 11 6 2 3 3 4 2 2 2 2 2 2 4 7 9 8 3 7 6 10 8 4 12 17 19 16
20 20 20 20 20 21 20 20 19 17 13 8 5 2 2 3 3 4 10 7 5 3 3 3 3 2 1 1 3 3 6 8 6 3 2 4 2 4 1 3 9 14 16 15 15
21 21 22 22 22 22 22 22 19 17 11 3 3 1 2 4 3 6 5 3 5 2 3 1 3 3 3 3 4 4 5 3 8 5 2 2 3 5 4 7 10 12 13 13 12
22 23 23 24 24 23 23 22 20 9 2 5 3 2 4 3 2 4 2 3 3 1 2 2 2 2 2 4 3 3 1 4 3 7 2 3 8 2 6 9 11 12 12 11 10
23 24 25 25 26 26 25 24 7 3 5 6 2 2 3 1 3 4 3 2 5 2 1 1 2 2 1 1 2 3 5 2 3 4 4 4 10 2 8 10 10 11 11 11 9
24 25 26 26 27 27 28 6 2 3 2 2 1 2 2 2 3 5 4 7 3 6 2 1 2 2 2 2 4 3 2 1 3 3 8 8 10 3 8 9 10 10 9 8 9
26 27 28 28 28 26 9 2 1 1 0 4 2 2 3 2 5 4 4 6 4 2 5 2 4 7 5 3 4 2 3 5 4 4 4 6 7 6 6 7 8 10 10 7 6
27 28 29 29 29 24 2 5 5 1 6 5 8 7 6 3 2 4 7 5 3 7 3 3 8 6 3 4 3 2 3 5 6 2 4 5 7 4 4 6 9 12 10 6 5
27 28 29 30 32 3 4 9 2 7 3 4 4 4 4 8 4 9 12 5 5 6 7 6 2 2 9 5 5 5 6 2 4 5 1 4 4 4 3 7 8 10 6 8 7
27 27 27 35 1 4 1 0 6 5 3 2 3 3 5 5 6 6 14 7 4 13 6 6 5 5 3 4 7 3 6 6 6 4 2 2 3 4 4 10 7 10 12 13 12
27 26 24 12 6 2 2 7 2 3 1 2 3 3 2 7 9 6 7 3 9 7 6 3 5 8 7 6 11 2 2 3 2 2 2 4 4 2 4 4 3 9 14 15 13
29 26 22 2 2 5 9 8 3 0 4 2 4 3 6 4 3 5 9 3 3 5 1 4 2 3 3 4 8 2 1 3 2 0 4 1 3 4 4 1 6 2 10 14 13
31 29 11 2 1 8 9 2 2 3 3 2 2 2 3 7 5 7 14 13 7 6 7 4 13 5 6 5 4 4 2 2 3 4 5 4 2 5 5 4 9 9 7 10 11
35 21 2 4 4 10 2 2 3 2 4 2 2 1 3 4 5 4 13 12 5 3 3 4 3 7 6 14 6 9 7 4 3 3 1 3 4 2 4 6 10 12 6 8 9
25 1 1 2 4 3 3 4 4 4 2 4 2 2 2 3 3 7 10 10 11 11 7 4 3 2 5 3 9 5 5 2 5 1 3 1 3 9 5 9 7 7 6 8 6
3 3 3 7 5 2 3 3 2 2 4 1 1 1 2 3 3 7 8 2 5 13 8 4 3 1 2 5 5 4 9 3 1 4 5 2 4 5 5 11 10 8 8 6 10
1 1 6 3 2 1 6 4 3 4 2 2 1 1 2 2 2 3 4 2 2 5 7 5 4 2 3 3 6 4 3 4 2 2 4 3 3 4 9 10 10 9 10 7 9
2 2 2 3 2 1 3 4 2 1 1 1 0 1 2 3 0 1 4 0 1 6 8 7 3 5 10 1 1 1 2 5 4 5 1 3 5 4 7 8 8 10 9 6 7
2 1 1 2 2 2 1 2 2 2 0 1 1 1 1 1 1 1 1 1 0 6 6 8 4 3 3 4 4 5 5 4 3 1 6 4 5 2 5 7 9 11 10 8 8
1 1 2 3 2 1 3 1 4 3 2 1 2 2 1 2 1 2 2 1 4 2 4 8 3 5 6 1 3 4 5 6 5 4 5 6 7 7 7 9 11 12 11 10 8
3 2 2 1 2 2 0 0 3 2 2 5 4 5 1 2 1 2 3 5 1 1 3 4 3 4 7 8 7 6 7 11 8 2 6 2 6 7 6 8 12 13 11 11 10
2 2 1 2 2 1 3 1 1 1 0 3 4 4 2 3 1 1 7 2 3 3 2 0 2 3 2 2 5 5 10 12 10 4 9 4 7 4 4 2 9 12 13 12 12
2 0 2 2 1 2 2 3 1 2 2 1 4 2 1 1 7 11 10 11 7 5 3 1 3 3 4 2 2 4 7 8 5 7 5 6 2 6 6 7 5 7 9 8 9
Wind_Direction
16 9 13 3 4 348 349 345 339 340 337 336 334 338 334 332 319 254 243 217 136 175 115 128 97 15 343 56 40 167 87 103 163 248 332 184 273 116 131 141 172 162 137 118 137
14 7 5 360 353 348 346 334 336 337 333 330 332 336 334 340 322 254 253 183 221 150 120 118 115 119 71 47 44 27 111 180 214 251 300 308 248 148 177 169 184 151 99 145 149
9 6 360 355 349 341 336 330 333 329 330 325 327 330 330 327 288 5 7 184 171 143 122 102 115 97 83 113 152 144 128 167 267 247 271 297 270 192 185 213 201 193 160 162 165
5 1 355 349 341 336 333 331 327 324 326 318 322 319 324 281 82 29 104 120 152 118 115 98 80 73 69 74 66 265 189 186 269 282 273 270 245 225 222 242 206 190 166 164 180
360 357 349 345 337 333 327 325 322 322 318 311 309 316 315 295 275 19 116 121 117 107 109 113 90 94 71 337 298 207 329 266 276 284 261 250 244 247 245 241 183 155 164 172 179
355 352 345 341 335 329 324 318 320 313 309 297 284 309 279 271 4 136 123 125 133 129 139 98 63 70 69 328 330 338 287 301 327 340 265 292 322 204 340 153 140 162 175 173 179
352 348 342 338 333 328 322 320 318 314 300 255 208 207 245 262 355 140 128 101 155 147 145 94 55 17 323 335 343 308 320 46 23 3 21 290 238 232 342 146 161 173 173 170 176
350 345 340 335 329 325 321 319 316 321 61 135 147 207 252 353 110 150 124 99 100 104 43 30 37 66 338 330 343 8 14 306 50 351 38 304 312 312 150 163 184 178 172 165 167
347 342 337 333 327 324 324 319 303 118 126 138 156 246 263 20 207 188 188 153 122 170 8 329 64 54 150 73 269 27 267 326 347 355 327 358 305 20 181 185 198 192 179 168 139
346 340 334 331 327 325 325 295 131 157 132 182 229 266 217 198 171 151 169 171 142 131 141 102 76 192 112 204 245 242 296 320 270 339 311 302 287 255 209 207 210 206 189 178 154
344 339 334 330 326 327 339 225 334 149 97 228 131 286 291 325 148 171 167 163 130 132 180 67 216 230 243 183 132 99 303 297 273 302 278 314 303 318 217 219 214 216 207 185 136
343 339 333 329 325 322 278 85 92 345 303 250 248 263 273 324 126 154 169 167 152 181 127 165 249 241 152 165 187 208 258 273 303 11 273 315 304 283 249 237 233 231 215 189 159
342 339 334 330 323 356 347 123 38 166 261 288 203 195 211 183 216 185 183 147 162 168 191 218 354 99 171 158 195 221 238 233 301 327 37 316 283 277 239 254 235 235 219 198 187
339 338 336 330 321 340 143 137 320 192 323 251 218 200 157 179 200 178 181 162 170 207 174 242 224 180 166 225 201 229 215 264 292 303 290 299 290 265 265 281 243 235 215 202 188
336 336 333 342 308 266 55 321 177 206 291 95 132 115 130 200 135 190 171 137 173 162 173 213 192 196 208 231 187 124 196 321 344 198 260 190 252 255 285 324 317 215 220 214 192
331 331 330 155 236 263 316 312 209 318 243 96 126 148 158 217 120 118 175 74 111 139 235 256 236 219 205 163 192 98 159 68 65 217 252 187 273 246 255 259 299 347 231 218 199
329 322 308 258 280 324 309 238 139 214 352 61 73 24 213 184 146 152 176 183 179 176 218 255 247 218 200 232 201 176 188 249 205 202 250 75 235 274 268 265 267 293 286 227 194
328 321 204 228 313 340 268 119 178 254 264 341 358 23 170 150 200 128 161 188 193 129 141 221 222 183 176 218 219 194 202 217 241 213 33 129 237 250 286 288 281 277 262 213 188
327 340 196 289 263 248 213 194 207 203 315 338 287 117 105 150 184 186 181 203 200 187 199 189 256 280 224 168 206 150 195 71 117 72 252 252 264 266 258 264 272 260 218 200 181
332 328 17 332 165 186 180 197 218 229 311 287 126 337 110 30 162 187 175 175 208 201 208 182 259 158 334 155 67 241 141 165 137 189 227 197 270 263 255 248 233 225 227 151 118
320 121 1 74 255 134 200 201 211 245 304 13 102 96 56 46 47 164 173 117 190 157 208 158 234 204 283 188 216 157 181 68 116 292 240 233 232 214 245 250 234 205 215 137 134
334 75 22 284 120 4 165 177 200 181 315 55 108 321 36 43 53 133 181 179 148 152 164 182 164 217 239 43 46 191 229 186 238 191 211 294 253 177 248 266 223 208 173 117 128
38 346 44 285 145 171 212 164 217 162 249 106 69 357 22 5 15 235 226 132 259 173 165 173 203 226 195 165 143 226 201 195 121 149 194 244 265 180 261 249 208 202 172 136 131
318 109 38 61 37 112 157 135 175 51 80 292 39 71 27 356 55 322 306 285 337 90 109 145 158 233 264 43 110 173 188 192 226 176 160 230 284 280 262 247 208 194 178 164 154
10 70 10 113 84 63 130 235 141 130 47 26 92 66 59 207 284 243 352 309 218 121 88 182 222 206 265 246 240 230 180 180 215 215 236 220 216 268 269 262 226 191 176 179 176
26 356 53 78 312 247 7 40 123 109 289 80 81 348 209 210 308 99 356 293 12 349 86 118 185 171 244 267 187 233 241 231 221 193 263 264 264 288 323 330 185 187 187 187 181
25 133 287 17 71 201 129 152 155 333 124 78 32 351 261 132 307 286 263 264 272 325 323 288 167 179 233 342 197 229 231 210 210 204 196 208 304 351 320 326 298 202 165 180 182